Find Kosmos-1732

NORAD ID: 16593 Int'l Des: 1986-015 Owner: VTS Country: SU operational
LEOCIRCULAR

Live Position

Loading 3D Globe...

About Kosmos-1732

Description loading...

Upcoming Passes

Passes for default location (London). Set your location on the main map for personalized predictions.

Altitude History

Loading altitude history...

Two-Line Element Set

1 16593U 86015A 26107.19535785 -.00000013 00000-0 32336-4 0 9999
2 16593 73.6141 27.0989 0026445 154.7550 205.4793 12.41025291820255
Epoch: Apr 17, 2026 • Age: 10 hours

Current Status

Altitude 1513.6 km
Velocity 7.11 km/s
Sub-Earth Point 51.21°N, 17.64°W
Launch Date Feb 11, 1986
Age 40.1 years
Type other

Technical Details

Classification Payload
Mass 1557.00 kg
Dry Mass 1557.00 kg
Total Mass 1557.00 kg
Length 5.80 m
Diameter 2.40 m
Span 17.80 m
Shape Cyl + 2 Pan + Ant
Manufacturer NPOPM
Bus Type KAUR-1 11F666
Phase Status In Orbit
Owner/State VTS/SU

Most Searched